Date,TemperatureHighF,TemperatureAvgF,TemperatureLowF,DewpointHighF,DewpointAvgF,DewpointLowF,HumidityHigh,HumidityAvg,HumidityLow,PressureMaxIn,PressureMinIn,WindSpeedMaxMPH,WindSpeedAvgMPH,GustSpeedMaxMPH,PrecipitationSumIn
2013-5-11,53.0,53.0,53.0,30.5,30.5,30.5,42,42,42,0.00,40.00,0,0,0,0.00
2013-7-7,90.3,81.5,55.4,44.0,40.6,38.2,60,24,18,26.69,0.00,0,0,3,0.00
2013-7-8,82.0,75.4,70.7,52.9,43.4,37.4,53,33,22,0.00,0.00,2,0,6,0.28
2013-7-9,88.0,74.6,68.7,64.1,55.1,42.0,66,53,21,0.00,0.00,2,0,6,0.43
2013-7-10,86.5,79.0,74.5,62.5,49.4,34.3,65,39,18,0.00,0.00,5,0,9,0.00
2013-7-11,87.1,76.5,59.0,37.0,32.8,27.5,39,21,16,26.69,25.28,6,1,6,0.00
2013-7-12,87.8,71.8,58.1,39.0,33.4,29.2,44,26,15,26.69,0.00,4,0,4,0.00
2013-7-13,90.0,75.1,60.1,43.1,36.5,33.5,43,26,17,26.69,26.69,5,0,3,0.00
2013-7-14,95.2,80.7,66.9,44.6,38.8,32.7,37,23,16,26.69,26.69,4,0,4,0.00
2013-7-15,97.7,82.3,71.2,47.1,43.0,39.4,37,26,16,26.69,26.69,4,0,4,0.00
2013-7-16,99.7,85.8,73.6,55.1,43.9,39.7,43,25,16,29.91,25.28,4,0,4,0.16
2013-7-17,100.2,85.2,74.3,47.3,42.5,35.8,36,24,15,26.69,26.69,6,0,6,0.00
2013-7-18,101.1,85.8,73.6,50.6,42.0,37.3,35,23,13,26.69,26.69,4,0,4,0.00
2013-7-19,100.2,86.9,72.5,59.5,40.5,33.0,61,21,13,26.69,26.69,9,1,9,0.39
2013-7-20,94.8,79.3,69.6,62.8,45.4,31.7,70,36,14,26.69,0.00,6,0,6,0.04
2013-7-21,92.1,75.6,64.6,41.6,36.0,31.2,33,24,17,26.69,26.69,2,0,3,0.00
2013-7-29,56.7,56.6,56.3,31.3,31.2,31.0,38,38,38,26.69,26.69,0,0,0,0.00
2013-7-30,81.3,53.8,50.5,42.0,30.6,28.8,44,41,21,26.69,26.69,0,0,0,0.00
2013-8-2,76.5,70.4,64.9,48.9,40.9,37.1,55,35,25,29.91,25.28,5,0,4,0.00
2013-8-3,88.9,71.4,58.6,47.3,34.9,25.3,50,29,14,26.69,26.69,7,0,6,0.00
2013-8-4,85.1,67.7,55.6,37.0,29.8,24.1,38,26,16,26.69,26.69,6,0,6,0.00
2013-8-5,75.0,63.1,51.1,40.5,30.7,24.3,40,30,21,26.69,26.69,2,0,2,0.00
2013-8-6,81.0,70.5,63.5,45.6,40.1,36.8,43,34,23,26.69,26.69,5,0,5,0.04
2013-8-7,80.4,70.5,64.6,59.3,49.5,40.0,65,48,25,26.69,0.00,6,0,6,1.06
2013-8-8,84.7,68.9,61.0,49.0,37.6,29.6,52,34,16,26.69,0.00,0,0,3,0.00
2013-8-9,91.2,73.7,59.2,42.2,34.6,28.9,38,25,16,0.00,0.00,2,0,6,0.00
2013-8-10,86.2,73.9,64.9,41.1,34.7,29.4,37,25,16,0.00,0.00,0,0,5,0.00
2013-8-11,87.4,71.1,60.1,41.3,33.7,30.3,38,26,16,0.00,0.00,1,0,6,0.00
2013-8-12,78.4,69.2,64.8,56.7,45.0,37.1,64,43,27,0.00,0.00,0,0,3,0.59
2013-8-13,73.7,64.0,55.2,46.9,32.0,23.6,50,32,19,0.00,0.00,3,0,7,0.00
2013-8-14,55.1,52.7,51.1,24.2,23.0,22.1,33,31,30,0.00,0.00,0,0,0,0.00
2013-8-16,79.9,69.7,60.4,32.1,28.9,25.9,34,22,15,26.69,26.69,0,0,0,0.00
2013-8-17,87.4,69.8,54.7,35.7,30.9,25.9,41,25,13,26.69,0.00,4,0,6,0.00
2013-8-18,86.9,70.9,55.2,36.2,31.7,28.9,39,25,16,26.69,26.69,0,0,0,0.00
2013-8-19,91.9,73.4,58.6,39.6,33.2,27.3,38,25,14,26.69,26.69,0,0,0,0.00
2013-8-20,91.2,75.3,60.6,42.2,34.9,30.3,39,25,15,26.69,26.69,4,0,4,0.00
2013-8-21,96.3,77.8,64.4,42.7,36.1,29.9,38,24,14,26.69,26.69,4,0,4,0.00
2013-8-22,84.7,71.0,65.1,55.3,45.2,30.7,65,43,20,26.69,26.69,7,0,7,0.31
2013-8-23,89.1,72.6,60.4,59.3,39.4,27.3,70,36,15,26.69,26.69,4,0,3,0.00
2013-8-24,93.0,71.8,55.0,39.5,34.0,30.3,43,27,14,26.69,26.69,4,0,4,0.00
2013-8-25,96.4,75.5,58.5,42.9,37.3,33.1,41,27,16,26.69,26.69,5,0,5,0.00
2013-8-26,89.2,77.9,68.2,45.3,39.8,35.7,32,26,19,26.69,26.69,6,0,6,0.00
2013-8-27,97.7,82.1,73.9,50.5,43.8,39.1,41,27,17,26.69,0.00,5,0,5,0.00
2013-8-28,84.0,78.0,70.3,47.1,43.2,38.9,37,29,23,26.69,26.69,4,0,5,0.00
2013-8-29,97.0,78.6,64.6,49.2,40.7,35.8,44,28,13,26.69,0.00,4,0,0,0.00
2013-8-30,99.7,81.6,67.5,49.6,41.9,37.6,43,26,13,26.69,26.69,7,0,6,0.00
2013-8-31,89.2,76.0,68.4,45.5,39.1,34.2,39,27,18,26.69,26.69,4,0,4,0.00
2013-9-1,93.5,76.1,69.3,46.5,41.2,36.3,41,30,16,26.69,26.69,4,0,6,0.00
2013-9-2,90.1,71.1,60.4,45.2,34.5,23.6,42,27,15,26.69,26.69,8,1,8,0.04
2013-9-3,90.8,68.3,55.6,35.3,27.2,22.6,34,22,12,26.69,26.69,7,0,7,0.00
2013-9-4,93.4,69.8,53.2,41.4,30.7,25.8,41,25,12,26.69,26.69,6,0,6,0.00
2013-9-5,89.4,67.4,56.1,37.2,25.9,17.2,37,22,13,26.69,0.00,5,0,4,0.00
2013-9-6,93.9,68.3,51.8,32.8,24.8,19.4,34,20,11,26.69,0.00,4,0,4,0.00
2013-9-7,91.0,73.1,60.1,37.0,30.1,24.7,27,21,15,26.69,26.69,4,0,4,0.00
2013-9-8,89.8,71.5,65.5,43.9,33.7,27.7,42,26,15,26.69,26.69,5,0,4,0.00
2013-9-9,93.7,72.1,57.4,43.7,37.0,27.3,55,30,14,26.69,0.00,6,0,6,0.51
2013-9-10,106.3,84.3,73.0,43.9,38.3,30.1,33,21,11,26.69,0.00,8,0,7,0.00
2013-9-11,75.4,74.4,73.2,34.5,33.3,32.1,23,22,21,26.69,26.69,0,0,0,0.00
2013-9-16,51.6,50.9,50.2,19.7,18.5,17.6,29,27,27,26.69,26.69,0,0,0,0.00
2013-9-17,75.4,58.0,42.8,26.2,20.2,16.1,40,24,15,26.69,26.69,5,0,4,0.00
2013-9-18,82.8,64.8,50.9,31.5,23.6,17.4,36,22,14,26.69,0.00,5,0,4,0.00
2013-9-19,84.6,67.5,61.3,54.6,37.1,22.4,63,34,18,26.69,0.00,4,0,3,0.12
2013-9-20,73.2,70.1,64.0,57.2,43.6,30.2,62,40,26,26.69,26.69,6,0,6,0.12
2013-9-21,64.0,64.0,64.0,30.2,30.2,30.2,28,28,28,0.00,0.00,0,0,0,0.00
2013-10-15,62.1,61.5,60.6,49.7,47.3,36.3,64,60,39,26.69,26.69,5,0,3,0.16
2013-10-16,61.0,51.2,47.5,48.8,29.6,21.6,65,44,32,26.69,26.69,6,0,6,0.00
2013-10-17,52.3,49.8,47.5,33.1,29.7,25.5,52,46,36,26.69,26.69,7,0,7,0.16
2013-10-18,61.0,47.8,38.7,33.5,23.0,18.5,56,39,24,26.69,26.69,7,0,6,0.00
2013-10-19,53.1,45.6,41.9,23.6,19.5,11.8,43,36,21,26.69,26.69,6,0,6,0.12
2013-10-20,61.0,50.1,39.6,30.0,22.4,18.2,51,35,21,26.69,26.69,6,0,6,0.04
2013-10-21,56.1,48.7,40.3,35.4,21.7,8.8,56,35,25,26.69,0.00,8,1,8,0.16
2013-10-22,48.7,41.1,33.4,14.7,10.6,7.0,34,28,24,26.69,0.00,5,0,4,0.00
2013-10-23,48.7,37.7,32.4,17.1,13.3,9.6,46,37,24,26.69,0.00,7,0,4,0.08
2013-10-24,43.0,36.2,33.8,22.4,17.6,13.4,52,47,32,26.69,26.69,4,0,4,0.12
2013-10-25,47.3,38.8,34.0,23.9,15.3,7.2,52,40,24,26.69,0.00,8,0,8,0.08
2013-10-26,52.5,44.6,40.6,18.6,11.6,7.0,29,26,23,26.69,26.69,8,2,8,0.00
2013-10-27,54.9,44.1,36.0,24.1,12.6,7.5,39,28,20,26.69,26.69,8,0,8,0.00
2013-10-28,54.1,41.9,32.2,18.7,12.2,7.2,40,30,23,26.69,26.69,6,0,6,0.00
2013-10-29,55.0,43.7,35.2,19.3,13.0,8.7,38,29,23,26.69,26.69,4,0,4,0.00
2013-10-30,64.2,51.5,38.1,43.3,23.1,15.3,60,34,21,26.69,26.69,4,0,4,0.47
2013-10-31,62.2,60.0,54.3,60.4,57.3,43.3,98,91,60,26.69,26.69,8,1,8,1.85
2013-11-1,54.1,46.8,44.6,53.6,31.5,20.1,98,58,32,26.69,26.69,8,1,8,0.16
2013-11-2,49.6,45.1,41.5,34.8,27.3,17.2,67,51,28,26.69,0.00,4,0,4,0.16
2013-11-3,51.3,42.1,32.4,22.9,15.4,11.1,48,34,26,26.69,0.00,4,0,4,0.08
2013-11-4,52.2,44.3,37.2,18.8,14.7,11.3,39,30,23,26.69,0.00,6,1,6,0.00
2013-11-5,55.4,51.6,48.6,26.9,22.2,18.5,37,31,27,26.69,0.00,4,0,4,0.00
2013-11-6,55.6,50.5,40.3,46.4,33.6,20.4,73,55,26,26.69,26.69,8,0,8,0.51
2013-11-7,55.2,39.2,32.2,29.8,14.1,10.5,66,36,23,26.69,0.00,6,0,6,0.04
2013-11-8,51.3,39.0,29.7,23.1,13.8,8.7,53,37,24,26.69,0.00,0,0,0,0.04
2013-11-9,62.2,48.6,40.3,21.8,16.1,11.1,30,27,21,26.69,26.69,8,2,8,0.00
2013-11-10,50.5,41.9,34.3,15.8,11.4,6.8,34,28,24,26.69,26.69,8,2,8,0.00
2013-11-11,44.8,36.4,25.0,20.1,11.9,1.6,52,37,29,26.69,26.69,8,0,8,0.16
2013-11-12,42.4,28.0,20.3,9.9,2.9,-1.6,45,34,25,26.69,0.00,8,1,8,0.00
2013-11-13,50.9,31.0,20.7,12.4,3.5,0.1,43,32,21,26.69,26.69,8,1,8,0.00
2013-11-14,60.8,40.2,30.2,18.2,6.3,0.9,28,24,19,26.69,26.69,7,0,7,0.00
2013-11-15,61.3,41.8,30.2,18.7,8.0,2.4,32,25,19,26.69,26.69,6,0,4,0.04
2013-11-16,56.5,48.0,33.1,46.0,22.1,6.4,68,37,29,26.69,26.69,6,2,6,0.08
2013-11-17,63.0,55.7,42.8,49.3,40.5,18.1,71,58,35,26.69,26.69,8,4,8,0.75
2013-11-18,44.2,38.1,34.3,19.4,10.8,6.1,38,32,29,26.69,26.69,10,5,10,0.00
2013-11-19,56.3,36.9,27.7,15.7,6.0,0.5,34,27,20,26.69,26.69,5,0,4,0.00
2013-11-20,48.2,33.4,28.4,10.9,5.0,2.6,33,30,21,26.69,26.69,6,2,6,0.00
2013-12-3,41.9,41.7,41.7,18.1,17.9,17.9,38,38,38,26.69,25.28,0,0,2,0.00
2013-12-10,21.6,20.8,19.4,-3.8,-6.5,-10.8,32,29,25,26.69,25.28,10,2,10,0.00
2013-12-11,25.9,18.0,11.8,0.0,-6.5,-11.2,35,33,27,26.69,26.69,8,1,8,0.00
2013-12-12,19.8,13.4,4.6,-6.7,-11.9,-17.6,34,31,25,26.69,26.69,8,1,8,0.00
2013-12-13,32.0,23.3,12.7,0.1,-4.3,-10.4,34,29,25,26.69,26.69,6,0,6,0.00
2013-12-14,25.7,21.3,18.0,-0.9,-3.5,-6.4,34,33,29,26.69,0.00,7,1,7,0.00
2013-12-15,24.4,20.4,17.4,0.3,-5.8,-10.2,35,31,27,26.69,26.69,9,1,9,0.00
2013-12-16,30.4,16.6,5.0,-3.1,-11.3,-20.4,31,28,23,26.69,26.69,6,0,6,0.00
2013-12-17,27.9,23.9,16.9,2.3,-2.0,-8.6,34,32,27,26.69,26.69,6,1,8,0.00
2013-12-18,34.5,26.8,22.8,2.2,-3.2,-8.3,33,27,23,26.69,26.69,8,1,8,0.00
2013-12-19,46.8,36.9,28.4,9.9,5.1,-4.8,31,26,22,26.69,26.69,6,0,6,0.43
2013-12-20,36.7,34.6,32.9,23.5,18.5,9.8,66,53,33,26.69,26.69,4,0,2,0.35
2013-12-21,34.5,33.3,32.2,23.6,21.5,15.6,65,62,50,26.69,26.69,5,0,5,0.47
2013-12-22,34.3,32.9,31.1,21.1,19.0,15.3,59,56,50,26.69,26.69,4,0,4,0.16
2013-12-23,30.9,24.8,13.3,15.3,3.5,-9.3,53,40,32,26.69,26.69,0,0,0,0.00
2013-12-24,32.9,13.1,7.5,0.5,-10.9,-14.5,35,33,23,26.69,26.69,0,0,0,0.00
2013-12-25,24.8,21.2,10.6,4.9,-2.8,-12.3,42,34,30,26.69,26.69,0,0,0,0.00
2013-12-26,31.6,26.1,23.0,6.4,0.9,-3.5,42,33,25,26.69,26.69,0,0,0,0.00
2013-12-27,32.0,30.9,27.7,6.1,4.8,2.9,35,33,32,26.69,26.69,0,0,0,0.00
2013-12-28,61.9,43.5,31.8,19.1,8.7,4.4,33,24,19,26.69,25.28,6,0,7,0.08
2013-12-29,42.9,32.2,21.2,9.0,2.8,-7.6,33,28,23,26.69,0.00,9,2,9,0.00
2013-12-30,23.4,18.7,14.2,-5.5,-9.6,-14.3,31,27,24,26.69,0.00,7,0,7,0.00
2013-12-31,21.0,15.4,13.5,-7.7,-11.0,-13.0,32,29,25,26.69,26.69,6,0,6,0.00
2014-1-1,15.4,13.1,10.8,-10.2,-13.1,-15.3,31,29,29,26.69,26.69,6,1,6,0.00
2014-1-2,15.8,10.5,-1.7,-12.6,-16.3,-27.6,29,28,26,26.69,26.69,11,3,12,0.00